Location: Il Ritiro
(43.4167°N, 13.1333°E)
Time: 17:11:07
(UTC+00:00)

BREEZE-M DEB (TANK) - Pass Details

Date: 05 July 2020
Orbit: 428 x 13238 km, 46.0° (Epoch: 10 August)

Event Time Altitude Azimuth Distance (km) Brightness Sun altitude
Rises 22:48:43 0° 230° (SW) 9,586 8.8 -23.7°
Reaches altitude 10° 22:57:51 10° 228° (SW) 6,496 7.9 -23.8°
Maximum altitude 23:11:44 54° 157° (SSE) 1,405 4.4 -23.9°
Drops below altitude 10° 23:16:07 10° 79° (ENE) 2,158 6.0 -23.9°
Sets 23:17:39 0° 73° (ENE) 2,799 6.7 -23.9°
